N3WMC Weather Reports


time (UTC)temp
C
wind
direction
speed
KPH
gust
KPH
rain 1hr
cm
rain 24hr
cm
rain mn
cm
humidity
%
barometer
mb
20260507231808 14 344 3.2 3.2 0.00 0.00 0.00 37 1011.5
20260507231305 15 24 9.7 11.3 0.00 0.00 0.00 37 1011.5
20260507230801 15 349 6.4 8.0 0.00 0.00 0.00 36 1011.3
20260507230258 15 337 3.2 4.8 0.00 0.00 0.00 37 1011.3
20260507225758 14 329 8.0 12.9 0.00 0.00 0.00 38 1011.4
20260507225254 15 302 6.4 8.0 0.00 0.00 0.00 37 1011.4
20260507224750 15 310 8.0 11.3 0.00 0.00 0.00 35 1011.1
20260507224247 15 327 11.3 16.1 0.00 0.00 0.00 35 1011.2
20260507223744 16 18 8.0 11.3 0.00 0.00 0.00 35 1011.3
20260507223240 15 3 12.9 20.9 0.00 0.00 0.00 35 1011.1
20260507222737 15 345 3.2 3.2 0.00 0.00 0.00 36 1011.1
20260507222233 14 339 8.0 11.3 0.00 0.00 0.00 37 1010.9
20260507221730 14 354 4.8 4.8 0.00 0.00 0.00 37 1010.9
20260507221226 14 323 4.8 8.0 0.00 0.00 0.00 36 1010.9
20260507220723 15 343 6.4 9.7 0.00 0.00 0.00 37 1010.8
20260507220221 15 311 4.8 4.8 0.00 0.00 0.00 37 1010.9
20260507215717 15 15 6.4 8.0 0.00 0.00 0.00 37 1010.6
20260507215215 15 19 6.4 12.9 0.00 0.00 0.00 38 1010.7
20260507214712 16 297 8.0 9.7 0.00 0.00 0.00 36 1010.8
20260507214209 15 338 9.7 9.7 0.00 0.00 0.00 37 1010.8
20260507213704 15 327 8.0 14.5 0.00 0.00 0.00 37 1010.6
20260507213201 15 323 8.0 11.3 0.00 0.00 0.00 37 1010.6
20260507212657 15 335 8.0 11.3 0.00 0.00 0.00 37 1010.9
20260507212154 15 52 8.0 12.9 0.00 0.00 0.00 36 1010.7
20260507211651 15 317 6.4 11.3 0.00 0.00 0.00 36 1010.9
20260507211146 15 13 3.2 3.2 0.00 0.00 0.00 38 1010.5
20260507210644 15 321 8.0 11.3 0.00 0.00 0.00 36 1010.4
20260507210141 16 315 8.0 9.7 0.00 0.00 0.00 36 1010.3
20260507205637 16 306 8.0 9.7 0.00 0.00 0.00 35 1010.4
20260507205134 15 305 3.2 3.2 0.00 0.00 0.00 35 1010.6
20260507204630 15 359 1.6 3.2 0.00 0.00 0.00 35 1010.5
20260507204128 15 310 1.6 3.2 0.00 0.00 0.00 37 1010.5
20260507203626 15 311 3.2 4.8 0.00 0.00 0.00 36 1010.4
20260507203123 16 262 6.4 8.0 0.00 0.00 0.00 35 1010.5
20260507202619 17 258 9.7 17.7 0.00 0.00 0.00 34 1010.4
20260507202116 17 356 1.6 3.2 0.00 0.00 0.00 35 1010.5
20260507201616 17 278 8.0 9.7 0.00 0.00 0.00 34 1010.3
20260507201113 16 231 4.8 8.0 0.00 0.00 0.00 36 1010.5
20260507200608 16 317 11.3 14.5 0.00 0.00 0.00 35 1010.8
20260507200105 16 333 11.3 12.9 0.00 0.00 0.00 35 1010.6
20260507195602 15 13 4.8 8.0 0.00 0.00 0.00 38 1010.8
20260507195059 16 354 1.6 3.2 0.00 0.00 0.00 39 1010.6
20260507194555 15 337 6.4 9.7 0.00 0.00 0.00 38 1010.7
20260507194051 15 0 3.2 4.8 0.00 0.00 0.00 39 1010.9
20260507193549 15 351 3.2 4.8 0.00 0.00 0.00 38 1010.9
20260507193046 16 7 8.0 9.7 0.00 0.00 0.00 38 1010.8
20260507192542 15 324 3.2 4.8 0.00 0.00 0.00 39 1010.8
20260507192039 16 356 1.6 3.2 0.00 0.00 0.00 39 1010.8
20260507191535 16 320 3.2 4.8 0.00 0.00 0.00 38 1010.9
20260507191032 16 327 4.8 4.8 0.00 0.00 0.00 40 1010.9
20260507190529 15 314 3.2 3.2 0.00 0.00 0.00 41 1011.2
20260507190028 15 345 4.8 4.8 0.00 0.00 0.00 42 1011.2
20260507185526 15 42 4.8 8.0 0.00 0.00 0.00 40 1011.0
20260507185022 16 341 4.8 8.0 0.00 0.00 0.00 41 1011.0
20260507184520 15 304 6.4 8.0 0.00 0.00 0.00 42 1011.1
20260507184018 15 342 1.6 3.2 0.00 0.00 0.00 42 1011.1
20260507183513 15 336 1.6 3.2 0.00 0.00 0.00 39 1011.3
20260507183011 15 320 6.4 9.7 0.00 0.00 0.00 40 1011.1
20260507182507 16 319 3.2 4.8 0.00 0.00 0.00 40 1011.2
20260507182003 17 22 8.0 11.3 0.00 0.00 0.00 38 1011.0
20260507181500 16 313 4.8 4.8 0.00 0.00 0.00 38 1011.5
20260507180956 15 315 4.8 8.0 0.00 0.00 0.00 40 1011.5
20260507180452 15 283 4.8 8.0 0.00 0.00 0.00 42 1011.4
20260507175948 16 314 0.0 1.6 0.00 0.00 0.00 42 1011.3
20260507175446 16 284 4.8 8.0 0.00 0.00 0.00 40 1011.5
20260507174943 15 245 6.4 9.7 0.00 0.00 0.00 41 1011.7
20260507174440 16 270 6.4 9.7 0.00 0.00 0.00 41 1011.6
20260507173937 15 193 6.4 9.7 0.00 0.00 0.00 40 1011.8
20260507173434 15 335 4.8 4.8 0.00 0.00 0.00 39 1011.7
20260507172931 14 320 1.6 1.6 0.00 0.00 0.00 41 1011.8
20260507172428 15 327 6.4 9.7 0.00 0.00 0.00 41 1011.7
20260507171924 15 313 6.4 14.5 0.00 0.00 0.00 41 1011.8
20260507171420 15 303 3.2 3.2 0.00 0.00 0.00 40 1012.1
20260507170918 16 350 0.0 0.0 0.00 0.00 0.00 39 1012.0
20260507170414 16 315 1.6 3.2 0.00 0.00 0.00 37 1012.1
20260507165910 15 286 4.8 8.0 0.00 0.00 0.00 40 1012.1
20260507165406 15 306 4.8 4.8 0.00 0.00 0.00 41 1012.2
20260507164902 15 288 4.8 4.8 0.00 0.00 0.00 42 1012.0
20260507164400 16 276 8.0 9.7 0.00 0.00 0.00 40 1012.3
20260507163857 16 316 1.6 1.6 0.00 0.00 0.00 40 1012.3
20260507163354 15 32 3.2 3.2 0.00 0.00 0.00 40 1012.3
20260507162851 15 323 4.8 8.0 0.00 0.00 0.00 40 1012.2
20260507162346 15 29 6.4 9.7 0.00 0.00 0.00 40 1012.4
20260507161843 15 277 9.7 14.5 0.00 0.00 0.00 40 1012.4
20260507161340 15 315 1.6 1.6 0.00 0.00 0.00 41 1012.4
20260507160837 14 269 8.0 11.3 0.00 0.00 0.00 43 1012.6
20260507160332 14 327 4.8 8.0 0.00 0.00 0.00 42 1012.5
20260507155829 15 222 4.8 8.0 0.00 0.00 0.00 43 1012.6
20260507155325 13 295 1.6 3.2 0.00 0.00 0.00 44 1012.9
20260507154821 13 30 8.0 12.9 0.00 0.00 0.00 45 1013.0
20260507154319 14 335 1.6 3.2 0.00 0.00 0.00 43 1013.1
20260507153815 15 230 3.2 4.8 0.00 0.00 0.00 42 1013.0
20260507153312 14 261 11.3 17.7 0.00 0.00 0.00 40 1013.3
20260507152808 13 25 3.2 3.2 0.00 0.00 0.00 44 1013.0
20260507152306 13 22 8.0 14.5 0.00 0.00 0.00 45 1013.2
20260507151800 14 319 1.6 1.6 0.00 0.00 0.00 45 1013.3
20260507151257 14 256 8.0 9.7 0.00 0.00 0.00 44 1013.3
20260507150755 13 221 4.8 4.8 0.00 0.00 0.00 47 1013.3
20260507150251 13 17 6.4 9.7 0.00 0.00 0.00 47 1013.3
20260507145747 13 326 1.6 1.6 0.00 0.00 0.00 45 1013.5
20260507145243 13 314 3.2 4.8 0.00 0.00 0.00 47 1013.7
20260507144741 13 1 3.2 4.8 0.00 0.00 0.00 50 1013.7
20260507144238 13 0 1.6 1.6 0.00 0.00 0.00 47 1013.5
20260507143735 13 328 1.6 1.6 0.00 0.00 0.00 46 1013.8
20260507143232 13 283 3.2 9.7 0.00 0.00 0.00 49 1013.9
20260507142728 12 316 3.2 3.2 0.00 0.00 0.00 52 1013.7
20260507142224 13 301 3.2 4.8 0.00 0.00 0.00 55 1013.8
20260507141721 12 358 1.6 1.6 0.00 0.00 0.00 56 1014.0
20260507141218 12 335 3.2 4.8 0.00 0.00 0.00 54 1013.9
20260507140714 12 331 3.2 3.2 0.00 0.00 0.00 57 1014.1
20260507140212 12 336 4.8 4.8 0.00 0.00 0.00 56 1014.2
20260507135708 12 307 3.2 4.8 0.00 0.00 0.00 60 1014.3
20260507135206 11 331 3.2 3.2 0.00 0.00 0.00 60 1014.4
20260507134702 11 312 4.8 4.8 0.00 0.00 0.00 61 1014.4
20260507134158 11 326 4.8 8.0 0.00 0.00 0.00 59 1014.3
20260507133654 11 331 4.8 4.8 0.00 0.00 0.00 64 1014.4
20260507133152 10 163 4.8 4.8 0.00 0.00 0.00 66 1014.5
20260507132649 10 215 3.2 8.0 0.00 0.00 0.00 67 1014.4
20260507132145 10 332 3.2 4.8 0.00 0.00 0.00 66 1014.6
20260507131643 10 358 3.2 4.8 0.00 0.00 0.00 64 1014.6
20260507131139 10 341 4.8 8.0 0.00 0.00 0.00 66 1014.3
20260507130636 10 323 1.6 1.6 0.00 0.00 0.00 70 1014.6
20260507130134 9 315 1.6 3.2 0.00 0.00 0.00 70 1014.5
20260507125633 8 337 1.6 1.6 0.00 0.00 0.00 77 1014.5
20260507125130 8 332 0.0 1.6 0.00 0.00 0.00 78 1014.7
20260507124626 8 210 3.2 4.8 0.00 0.00 0.00 79 1014.6
20260507124124 7 292 1.6 3.2 0.00 0.00 0.00 80 1014.6
20260507123622 7 350 1.6 1.6 0.00 0.00 0.00 80 1014.6
20260507123119 7 204 3.2 3.2 0.00 0.00 0.00 81 1014.8
20260507122613 7 6 0.0 1.6 0.00 0.00 0.00 82 1014.5
20260507122109 7 33 0.0 0.0 0.00 0.00 0.00 87 1014.7
20260507121606 6 21 0.0 0.0 0.00 0.00 0.00 93 1014.6
20260507121102 6 13 0.0 0.0 0.00 0.00 0.00 96 1014.7
20260507120558 5 10 0.0 0.0 0.00 0.00 0.00 97 1014.6
20260507120055 5 10 0.0 0.0 0.00 0.00 0.00 97 1014.7
20260507115551 5 10 0.0 0.0 0.00 0.00 0.00 98 1014.6
20260507115047 3 10 0.0 0.0 0.00 0.00 0.00 97 1014.7
20260507114543 3 10 0.0 0.0 0.00 0.00 0.00 97 1014.8
20260507114041 3 10 0.0 0.0 0.00 0.00 0.00 97 1014.5
20260507113537 3 10 0.0 0.0 0.00 0.00 0.00 97 1014.6
20260507113035 2 10 0.0 0.0 0.00 0.00 0.00 98 1014.5
20260507112533 2 10 0.0 0.0 0.00 0.00 0.00 97 1014.5
20260507112029 2 10 0.0 0.0 0.00 0.00 0.00 97 1014.4
20260507111526 2 10 0.0 0.0 0.00 0.00 0.00 97 1014.3
20260507111022 1 10 0.0 0.0 0.00 0.00 0.00 97 1014.2
20260507110519 1 10 0.0 0.0 0.00 0.00 0.00 97 1014.2
20260507110015 1 10 0.0 0.0 0.00 0.00 0.00 97 1014.4
20260507105513 1 10 0.0 0.0 0.00 0.00 0.00 97 1014.2
20260507105003 1 10 0.0 0.0 0.00 0.00 0.00 97 1014.2
20260507104500 1 10 0.0 0.0 0.00 0.00 0.00 97 1014.1
20260507103956 1 10 0.0 0.0 0.00 0.00 0.00 97 1013.9
20260507103453 1 10 0.0 0.0 0.00 0.00 0.00 97 1014.1
20260507102949 1 10 0.0 0.0 0.00 0.00 0.00 97 1013.9
20260507102446 1 10 0.0 0.0 0.00 0.00 0.00 96 1014.1
20260507101942 1 10 0.0 0.0 0.00 0.00 0.00 96 1014.0
20260507101437 1 10 0.0 0.0 0.00 0.00 0.00 96 1013.9
20260507100934 1 10 0.0 0.0 0.00 0.00 0.00 96 1013.9
20260507100432 1 10 0.0 0.0 0.00 0.00 0.00 96 1014.1
20260507095930 1 10 0.0 0.0 0.00 0.00 0.00 96 1013.9
20260507095427 1 10 0.0 0.0 0.00 0.00 0.00 96 1014.0
20260507094924 1 10 0.0 0.0 0.00 0.00 0.00 96 1014.1
20260507094420 1 10 0.0 0.0 0.00 0.00 0.00 96 1013.9
20260507093917 2 10 0.0 0.0 0.00 0.00 0.00 95 1014.1
20260507093415 1 10 0.0 0.0 0.00 0.00 0.00 95 1014.0
20260507092913 2 10 0.0 0.0 0.00 0.00 0.00 95 1014.1
20260507092409 1 10 0.0 0.0 0.00 0.00 0.00 95 1014.2
20260507091906 1 10 0.0 0.0 0.00 0.00 0.00 95 1014.2
20260507091402 2 10 0.0 0.0 0.00 0.00 0.00 95 1014.2
20260507090858 2 10 0.0 0.0 0.00 0.00 0.00 95 1014.3
20260507090354 2 10 0.0 0.0 0.00 0.00 0.00 95 1014.2
20260507085852 2 10 0.0 0.0 0.00 0.00 0.00 95 1014.1
20260507085348 2 10 0.0 0.0 0.00 0.00 0.00 94 1014.0
20260507084845 2 10 0.0 0.0 0.00 0.00 0.00 94 1014.0
20260507084342 2 10 0.0 0.0 0.00 0.00 0.00 94 1014.0
20260507083839 2 10 0.0 0.0 0.00 0.00 0.00 94 1014.0
20260507083336 2 10 0.0 0.0 0.00 0.00 0.00 94 1014.0
20260507082832 2 10 0.0 0.0 0.00 0.00 0.00 94 1014.1
20260507082327 2 10 0.0 0.0 0.00 0.00 0.00 94 1013.9
20260507081825 3 10 0.0 0.0 0.00 0.00 0.00 93 1013.8
20260507081321 3 10 0.0 0.0 0.00 0.00 0.00 93 1014.0
20260507080817 3 10 0.0 0.0 0.00 0.00 0.00 93 1014.2
20260507080314 3 10 0.0 0.0 0.00 0.00 0.00 93 1014.0
20260507075809 3 10 0.0 0.0 0.00 0.00 0.00 93 1014.2
20260507075307 3 10 0.0 0.0 0.00 0.00 0.00 93 1014.0
20260507074802 3 10 0.0 1.6 0.00 0.00 0.00 93 1014.2
20260507074300 3 9 0.0 0.0 0.00 0.00 0.00 92 1014.0
20260507073757 3 10 0.0 0.0 0.00 0.00 0.00 92 1014.0
20260507073253 3 9 0.0 0.0 0.00 0.00 0.00 92 1014.1
20260507072751 3 9 0.0 0.0 0.00 0.00 0.00 92 1014.0
20260507072248 4 9 0.0 0.0 0.00 0.00 0.00 91 1014.1
20260507071746 4 9 0.0 0.0 0.00 0.00 0.00 91 1014.2
20260507071242 4 9 0.0 0.0 0.00 0.00 0.00 90 1014.1
20260507070739 4 9 0.0 0.0 0.00 0.00 0.00 90 1014.3
20260507070236 4 9 0.0 0.0 0.00 0.00 0.00 89 1014.3
20260507065732 5 9 0.0 0.0 0.00 0.00 0.00 89 1014.2
20260507065229 5 9 0.0 0.0 0.00 0.00 0.00 88 1014.2
20260507064726 5 9 0.0 0.0 0.00 0.00 0.00 87 1014.2
20260507064220 5 9 0.0 0.0 0.00 0.00 0.00 85 1014.2
20260507063716 5 9 0.0 0.0 0.00 0.00 0.00 85 1014.1
20260507063213 6 9 0.0 0.0 0.00 0.00 0.00 84 1014.2
20260507062710 6 9 0.0 0.0 0.00 0.00 0.00 83 1014.3
20260507062208 6 9 0.0 0.0 0.00 0.00 0.00 82 1014.0
20260507061706 6 9 0.0 0.0 0.00 0.00 0.00 80 1014.1
20260507061203 7 9 0.0 0.0 0.00 0.00 0.00 80 1014.2
20260507060701 7 9 0.0 0.0 0.00 0.00 0.00 78 1014.1
20260507060157 7 9 0.0 0.0 0.00 0.00 0.00 75 1014.1
20260507055654 7 9 0.0 0.0 0.00 0.00 0.00 74 1014.2
20260507055150 7 9 0.0 0.0 0.00 0.00 0.00 74 1014.5
20260507054646 7 9 0.0 0.0 0.00 0.00 0.00 72 1014.4
20260507054143 7 9 0.0 0.0 0.00 0.00 0.00 70 1014.8
20260507053641 7 9 0.0 0.0 0.00 0.00 0.00 73 1014.6
20260507053138 7 9 0.0 0.0 0.00 0.00 0.00 74 1014.7
20260507052636 8 9 0.0 0.0 0.00 0.00 0.00 76 1015.1
20260507052127 7 10 0.0 0.0 0.00 0.00 0.00 75 1015.0
20260507051625 7 356 1.6 3.2 0.00 0.00 0.00 76 1015.0
20260507051121 7 14 0.0 0.0 0.00 0.00 0.00 79 1014.9
20260507050618 7 14 0.0 0.0 0.00 0.00 0.00 79 1014.8
20260507050115 8 5 1.6 1.6 0.00 0.00 0.00 81 1014.7
20260507045611 8 1 0.0 1.6 0.00 0.00 0.00 79 1014.8
20260507045109 8 14 1.6 1.6 0.00 0.00 0.00 77 1014.7
20260507044605 8 15 0.0 1.6 0.00 0.00 0.00 78 1014.7
20260507044102 8 14 1.6 1.6 0.00 0.00 0.00 79 1014.8
20260507043558 8 14 0.0 0.0 0.00 0.00 0.00 80 1014.8
20260507043055 8 14 0.0 1.6 0.00 0.00 0.00 80 1014.9
20260507042551 8 14 0.0 0.0 0.00 0.00 0.00 79 1014.7
20260507042047 8 14 0.0 0.0 0.00 0.00 0.00 79 1014.8
20260507041544 8 14 0.0 0.0 0.00 0.00 0.00 80 1014.9
20260507041040 8 14 0.0 0.0 0.00 0.00 0.00 81 1014.6
20260507040537 8 14 0.0 0.0 0.00 0.00 0.00 81 1014.8
20260507040033 8 15 1.6 1.6 0.00 1.68 1.68 80 1014.4
20260507035529 8 14 0.0 0.0 0.00 1.68 1.68 79 1014.6
20260507035026 8 14 0.0 0.0 0.00 1.68 1.68 79 1014.7
20260507034522 8 14 0.0 0.0 0.00 1.68 1.68 79 1014.6
20260507034020 8 14 0.0 0.0 0.00 1.68 1.68 80 1014.6
20260507033518 8 14 0.0 0.0 0.00 1.68 1.68 80 1014.4
20260507033016 8 14 0.0 0.0 0.00 1.68 1.68 79 1014.6
20260507032512 8 14 0.0 1.6 0.00 1.68 1.68 79 1014.4
20260507032008 8 14 0.0 1.6 0.00 1.68 1.68 78 1014.5
20260507031504 8 14 1.6 1.6 0.00 1.68 1.68 77 1014.2
20260507031002 8 14 0.0 0.0 0.00 1.68 1.68 74 1014.2
20260507030459 8 14 0.0 0.0 0.00 1.68 1.68 76 1014.5
20260507025955 8 14 0.0 0.0 0.00 1.68 1.68 76 1014.4
20260507025453 9 14 0.0 0.0 0.00 1.68 1.68 75 1014.2
20260507024951 9 14 0.0 0.0 0.00 1.68 1.68 73 1014.2
20260507024448 9 14 0.0 0.0 0.00 1.68 1.68 72 1014.2
20260507023943 9 14 0.0 0.0 0.00 1.68 1.68 67 1014.2
20260507023441 10 15 0.0 0.0 0.00 1.68 1.68 65 1014.1
20260507022938 10 15 1.6 1.6 0.00 1.68 1.68 65 1013.9
20260507022436 9 1 0.0 0.0 0.00 1.68 1.68 65 1014.2
20260507021930 10 1 0.0 0.0 0.00 1.68 1.68 65 1014.1
20260507021425 10 5 0.0 0.0 0.00 1.68 1.68 65 1013.9
20260507020924 10 4 1.6 1.6 0.00 1.68 1.68 64 1014.0
20260507020420 10 2 0.0 1.6 0.00 1.68 1.68 63 1013.7
20260507015917 10 359 1.6 1.6 0.00 1.68 1.68 63 1013.9
20260507015415 10 358 1.6 1.6 0.00 1.68 1.68 62 1013.7
20260507014912 10 14 1.6 1.6 0.00 1.68 1.68 63 1013.4
20260507014408 10 2 0.0 1.6 0.00 1.68 1.68 63 1013.6
20260507013904 10 12 1.6 3.2 0.00 1.68 1.68 62 1013.6
20260507013357 10 7 1.6 1.6 0.00 1.68 1.68 62 1013.1
20260507012854 10 19 3.2 4.8 0.00 1.68 1.68 61 1013.5
20260507012349 10 14 0.0 0.0 0.00 1.68 1.68 61 1013.4
20260507011847 10 3 0.0 1.6 0.00 1.68 1.68 61 1013.5
20260507011344 10 19 1.6 3.2 0.00 1.68 1.68 61 1013.3
20260507010838 10 11 1.6 3.2 0.00 1.68 1.68 60 1013.5
20260507010334 10 28 4.8 4.8 0.00 1.68 1.68 61 1014.0
20260507005831 10 49 4.8 9.7 0.00 1.68 1.68 62 1013.9
20260507005328 10 15 0.0 0.0 0.00 1.68 1.68 62 1014.0
20260507004825 10 6 1.6 1.6 0.00 1.68 1.68 63 1014.1
20260507004322 10 11 0.0 1.6 0.00 1.68 1.68 64 1014.0
20260507003819 10 350 1.6 1.6 0.00 1.68 1.68 64 1013.7
20260507003314 11 348 0.0 1.6 0.00 1.68 1.68 64 1013.8
20260507002809 11 18 1.6 1.6 0.00 1.68 1.68 63 1013.8
20260507002306 11 18 1.6 3.2 0.00 1.68 1.68 63 1013.7
20260507001803 11 33 1.6 3.2 0.00 1.68 1.68 64 1013.6
20260507001300 11 6 3.2 3.2 0.00 1.68 1.68 62 1013.7
20260507000756 11 350 0.0 1.6 0.00 1.68 1.68 61 1013.6
20260507000252 11 339 6.4 8.0 0.00 1.68 1.68 61 1013.7
20260506235748 11 35 8.0 11.3 0.00 1.68 1.68 60 1013.8
20260506235244 11 12 1.6 4.8 0.00 1.68 1.68 62 1013.7
20260506234741 11 355 4.8 8.0 0.00 1.68 1.68 62 1013.5
20260506234238 11 11 6.4 9.7 0.00 1.68 1.68 64 1013.2
20260506233736 11 11 1.6 3.2 0.00 1.68 1.68 65 1013.5
20260506233232 11 354 4.8 4.8 0.00 1.68 1.68 65 1013.1
20260506232724 12 3 1.6 1.6 0.00 1.68 1.68 66 1012.9
20260506232224 12 9 1.6 3.2 0.00 1.68 1.68 68 1012.8